Time,TemperatureF,DewpointF,PressureIn,WindDirection,WindDirectionDegrees,WindSpeedMPH,WindSpeedGustMPH,Humidity,HourlyPrecipIn,Conditions,Clouds,dailyrainin,SoftwareType,DateUTC
2013-01-24 00:02:00,23.5,21.0,28.95,NE,45,7.1,7.1,90,0.00,,,0.00,WUHU216HW,2013-01-24 09:02:00,
2013-01-24 00:07:00,23.7,21.4,28.95,NE,45,3.8,7.1,91,0.00,,,0.00,WUHU216HW,2013-01-24 09:07:00,
2013-01-24 00:12:00,23.9,21.6,28.95,NNW,338,4.4,4.4,91,0.00,,,0.00,WUHU216HW,2013-01-24 09:12:00,
2013-01-24 00:17:00,24.0,21.8,28.96,NW,315,0.0,4.4,91,0.00,,,0.00,WUHU216HW,2013-01-24 09:17:00,
2013-01-24 00:22:00,24.0,21.8,28.96,SW,225,0.0,4.4,91,0.00,,,0.00,WUHU216HW,2013-01-24 09:22:00,
2013-01-24 00:27:00,24.4,22.1,28.96,SW,225,0.0,4.2,91,0.00,,,0.00,WUHU216HW,2013-01-24 09:27:00,
2013-01-24 00:32:00,24.4,22.1,28.96,SW,225,0.0,0.0,91,0.00,,,0.00,WUHU216HW,2013-01-24 09:32:00,
2013-01-24 00:37:00,24.4,22.1,28.97,SW,225,0.0,0.0,91,0.00,,,0.00,WUHU216HW,2013-01-24 09:37:00,
2013-01-24 00:42:00,24.6,22.3,28.97,WSW,248,0.0,0.0,91,0.00,,,0.00,WUHU216HW,2013-01-24 09:42:00,
2013-01-24 00:47:00,24.6,22.3,28.97,WNW,293,0.0,0.0,91,0.00,,,0.00,WUHU216HW,2013-01-24 09:47:00,
2013-01-24 00:52:00,24.6,22.3,28.97,WNW,293,0.0,0.0,91,0.00,,,0.00,WUHU216HW,2013-01-24 09:52:00,
2013-01-24 00:57:00,24.6,22.3,28.97,WNW,293,0.0,0.0,91,0.00,,,0.00,WUHU216HW,2013-01-24 09:57:00,
2013-01-24 01:02:00,24.6,22.3,28.97,WNW,293,0.0,0.0,91,0.00,,,0.00,WUHU216HW,2013-01-24 10:02:00,
2013-01-24 01:07:00,24.6,22.3,28.97,NE,45,0.8,0.8,91,0.00,,,0.00,WUHU216HW,2013-01-24 10:07:00,
2013-01-24 01:12:00,24.6,22.3,28.97,NE,45,0.0,0.8,91,0.00,,,0.00,WUHU216HW,2013-01-24 10:12:00,
2013-01-24 01:17:00,24.6,22.3,28.97,NNE,23,0.0,0.8,91,0.00,,,0.00,WUHU216HW,2013-01-24 10:17:00,
2013-01-24 01:22:00,24.8,22.5,28.97,NE,45,0.0,0.0,91,0.00,,,0.00,WUHU216HW,2013-01-24 10:22:00,
2013-01-24 01:27:00,24.6,22.3,28.97,NNE,23,0.0,0.0,91,0.00,,,0.00,WUHU216HW,2013-01-24 10:27:00,
2013-01-24 01:32:00,24.6,22.3,28.97,NNE,23,0.0,0.0,91,0.00,,,0.00,WUHU216HW,2013-01-24 10:32:00,
2013-01-24 01:37:00,24.6,22.3,28.97,NNE,23,0.0,0.0,91,0.00,,,0.00,WUHU216HW,2013-01-24 10:37:00,
2013-01-24 01:42:00,24.6,22.3,28.97,NE,45,0.2,0.2,91,0.00,,,0.00,WUHU216HW,2013-01-24 10:42:00,
2013-01-24 01:47:00,24.6,22.3,28.97,NNE,23,2.2,2.2,91,0.00,,,0.00,WUHU216HW,2013-01-24 10:47:00,
2013-01-24 01:52:00,24.9,22.7,28.97,NNE,23,6.2,6.2,91,0.00,,,0.00,WUHU216HW,2013-01-24 10:52:00,
2013-01-24 01:57:00,24.9,22.7,28.97,NNE,23,1.3,6.2,91,0.00,,,0.00,WUHU216HW,2013-01-24 10:57:00,
2013-01-24 02:02:00,24.9,22.7,28.97,NE,45,1.5,6.2,91,0.00,,,0.00,WUHU216HW,2013-01-24 11:02:00,
2013-01-24 02:07:00,25.1,22.7,28.97,NNE,23,0.0,6.7,91,0.00,,,0.00,WUHU216HW,2013-01-24 11:07:00,
2013-01-24 02:12:00,25.1,22.8,28.97,NNE,23,0.0,6.7,91,0.00,,,0.00,WUHU216HW,2013-01-24 11:12:00,
2013-01-24 02:17:00,24.9,22.7,28.97,NNE,23,0.0,0.0,91,0.00,,,0.00,WUHU216HW,2013-01-24 11:17:00,
2013-01-24 02:22:00,24.9,22.7,28.98,NNE,23,0.0,0.0,91,0.00,,,0.00,WUHU216HW,2013-01-24 11:22:00,
2013-01-24 02:28:00,24.9,22.7,28.98,NNE,23,0.8,0.8,91,0.00,,,0.00,WUHU216HW,2013-01-24 11:28:00,
2013-01-24 02:33:00,24.8,22.5,28.98,NNE,23,1.3,1.3,91,0.00,,,0.00,WUHU216HW,2013-01-24 11:33:00,
2013-01-24 02:38:00,24.6,22.3,28.98,NE,45,0.0,1.3,91,0.00,,,0.00,WUHU216HW,2013-01-24 11:38:00,
2013-01-24 02:43:00,24.6,22.3,28.98,NNE,23,0.0,2.6,91,0.00,,,0.00,WUHU216HW,2013-01-24 11:43:00,
2013-01-24 02:48:00,24.6,22.3,28.98,NNE,23,0.0,5.1,91,0.00,,,0.00,WUHU216HW,2013-01-24 11:48:00,
2013-01-24 02:53:00,24.6,22.3,28.98,NNE,23,2.9,5.1,91,0.00,,,0.00,WUHU216HW,2013-01-24 11:53:00,
2013-01-24 02:58:00,24.6,22.3,28.98,NNE,23,2.4,5.1,91,0.00,,,0.00,WUHU216HW,2013-01-24 11:58:00,
2013-01-24 03:03:00,24.6,22.3,28.98,NE,45,0.0,2.9,91,0.00,,,0.00,WUHU216HW,2013-01-24 12:03:00,
2013-01-24 03:08:00,24.4,22.1,28.98,NNE,23,2.4,6.0,91,0.00,,,0.00,WUHU216HW,2013-01-24 12:08:00,
2013-01-24 03:13:00,24.4,22.1,28.98,NE,45,0.0,6.0,91,0.00,,,0.00,WUHU216HW,2013-01-24 12:13:00,
2013-01-24 03:18:00,24.4,22.1,28.98,NNE,23,0.0,3.5,91,0.00,,,0.00,WUHU216HW,2013-01-24 12:18:00,
2013-01-24 03:23:00,24.0,21.8,28.99,NNE,23,0.0,3.5,91,0.00,,,0.00,WUHU216HW,2013-01-24 12:23:00,
2013-01-24 03:28:00,23.9,21.6,28.98,NNE,23,0.0,1.3,91,0.00,,,0.00,WUHU216HW,2013-01-24 12:28:00,
2013-01-24 03:33:00,23.7,21.4,28.99,NNE,23,0.0,0.0,91,0.00,,,0.00,WUHU216HW,2013-01-24 12:33:00,
2013-01-24 03:38:00,23.5,21.0,28.99,ENE,68,0.0,0.0,90,0.00,,,0.00,WUHU216HW,2013-01-24 12:38:00,
2013-01-24 03:43:00,23.5,21.0,28.99,ENE,68,0.0,0.0,90,0.00,,,0.00,WUHU216HW,2013-01-24 12:43:00,
2013-01-24 03:48:00,23.3,20.8,28.99,NE,45,0.0,0.0,90,0.00,,,0.00,WUHU216HW,2013-01-24 12:48:00,
2013-01-24 03:53:00,23.3,20.8,28.99,NE,45,1.1,1.1,90,0.00,,,0.00,WUHU216HW,2013-01-24 12:53:00,
2013-01-24 03:58:00,23.3,20.8,29.00,East,90,0.0,3.3,90,0.00,,,0.00,WUHU216HW,2013-01-24 12:58:00,
2013-01-24 04:03:00,23.3,20.8,28.99,NE,45,4.0,4.0,90,0.00,,,0.00,WUHU216HW,2013-01-24 13:03:00,
2013-01-24 04:08:00,23.3,20.8,28.99,NE,45,5.1,5.1,90,0.00,,,0.00,WUHU216HW,2013-01-24 13:08:00,
2013-01-24 04:13:00,23.5,21.0,28.99,NNE,23,0.0,5.1,90,0.00,,,0.00,WUHU216HW,2013-01-24 13:13:00,
2013-01-24 04:18:00,23.5,21.0,29.00,ENE,68,0.0,5.1,90,0.00,,,0.00,WUHU216HW,2013-01-24 13:18:00,
2013-01-24 04:23:00,23.3,20.8,29.00,NE,45,0.0,0.0,90,0.00,,,0.00,WUHU216HW,2013-01-24 13:23:00,
2013-01-24 04:28:00,23.1,20.6,29.01,ESE,113,0.0,0.0,90,0.00,,,0.00,WUHU216HW,2013-01-24 13:28:00,
2013-01-24 04:33:00,23.0,20.4,29.00,NE,45,0.8,0.8,90,0.00,,,0.00,WUHU216HW,2013-01-24 13:33:00,
2013-01-24 04:38:00,23.0,20.4,29.00,ENE,68,0.0,0.8,90,0.00,,,0.00,WUHU216HW,2013-01-24 13:38:00,
2013-01-24 04:43:00,23.0,20.4,29.01,ENE,68,0.0,0.0,90,0.00,,,0.00,WUHU216HW,2013-01-24 13:43:00,
2013-01-24 04:48:00,23.1,20.6,29.01,ENE,68,0.0,0.0,90,0.00,,,0.00,WUHU216HW,2013-01-24 13:48:00,
2013-01-24 04:53:00,23.1,20.6,29.01,NE,45,0.0,3.3,90,0.00,,,0.00,WUHU216HW,2013-01-24 13:53:00,
2013-01-24 04:58:00,23.1,20.6,29.01,NE,45,0.0,3.3,90,0.00,,,0.00,WUHU216HW,2013-01-24 13:58:00,
2013-01-24 05:03:00,23.1,20.6,29.01,ENE,68,0.6,0.6,90,0.00,,,0.00,WUHU216HW,2013-01-24 14:03:00,
2013-01-24 05:08:00,22.8,20.3,29.01,NE,45,0.0,0.6,90,0.00,,,0.00,WUHU216HW,2013-01-24 14:08:00,
2013-01-24 05:13:00,22.8,20.3,29.01,NE,45,0.0,0.0,90,0.00,,,0.00,WUHU216HW,2013-01-24 14:13:00,
2013-01-24 05:18:00,22.8,20.3,29.01,NE,45,0.0,0.0,90,0.00,,,0.00,WUHU216HW,2013-01-24 14:18:00,
2013-01-24 05:23:00,22.6,20.1,29.01,NE,45,0.0,0.0,90,0.00,,,0.00,WUHU216HW,2013-01-24 14:23:00,
2013-01-24 05:28:00,22.2,19.7,29.02,NE,45,0.0,0.0,90,0.00,,,0.00,WUHU216HW,2013-01-24 14:28:00,
2013-01-24 05:33:00,22.1,19.5,29.02,NE,45,0.0,0.0,90,0.00,,,0.00,WUHU216HW,2013-01-24 14:33:00,
2013-01-24 05:38:00,21.9,19.4,29.02,NE,45,0.0,0.0,90,0.00,,,0.00,WUHU216HW,2013-01-24 14:38:00,
2013-01-24 05:43:00,21.3,18.8,29.02,NE,45,0.0,0.0,90,0.00,,,0.00,WUHU216HW,2013-01-24 14:43:00,
2013-01-24 05:48:00,21.0,18.5,29.02,SE,135,0.0,0.0,90,0.00,,,0.00,WUHU216HW,2013-01-24 14:48:00,
2013-01-24 05:53:00,20.8,18.3,29.02,SE,135,0.0,0.0,90,0.00,,,0.00,WUHU216HW,2013-01-24 14:53:00,
2013-01-24 05:58:00,20.4,17.9,29.02,SE,135,0.0,0.0,90,0.00,,,0.00,WUHU216HW,2013-01-24 14:58:00,
2013-01-24 06:03:00,20.3,17.7,29.02,SE,135,0.0,0.0,90,0.00,,,0.00,WUHU216HW,2013-01-24 15:03:00,
2013-01-24 06:08:00,19.9,17.4,29.02,SE,135,0.0,0.0,90,0.00,,,0.00,WUHU216HW,2013-01-24 15:08:00,
2013-01-24 06:13:00,19.7,17.2,29.03,SE,135,0.0,0.0,90,0.00,,,0.00,WUHU216HW,2013-01-24 15:13:00,
2013-01-24 06:18:00,19.5,17.0,29.03,SE,135,0.0,0.0,90,0.00,,,0.00,WUHU216HW,2013-01-24 15:18:00,
2013-01-24 06:23:00,19.4,16.6,29.03,SE,135,0.0,0.0,89,0.00,,,0.00,WUHU216HW,2013-01-24 15:23:00,
2013-01-24 06:28:00,19.2,16.4,29.03,SE,135,0.0,0.0,89,0.00,,,0.00,WUHU216HW,2013-01-24 15:28:00,
2013-01-24 06:33:00,19.0,16.2,29.03,SE,135,0.0,0.0,89,0.00,,,0.00,WUHU216HW,2013-01-24 15:33:00,
2013-01-24 06:38:00,18.8,16.0,29.03,SE,135,0.0,0.0,89,0.00,,,0.00,WUHU216HW,2013-01-24 15:38:00,
2013-01-24 06:43:00,18.6,15.8,29.03,SE,135,0.0,0.0,89,0.00,,,0.00,WUHU216HW,2013-01-24 15:43:00,
2013-01-24 06:48:00,18.8,16.0,29.03,SE,135,0.0,0.0,89,0.00,,,0.00,WUHU216HW,2013-01-24 15:48:00,
2013-01-24 06:53:00,18.8,16.0,29.03,ESE,113,0.0,0.0,89,0.00,,,0.00,WUHU216HW,2013-01-24 15:53:00,
2013-01-24 06:58:00,19.2,16.7,29.03,ESE,113,0.0,0.0,90,0.00,,,0.00,WUHU216HW,2013-01-24 15:58:00,
2013-01-24 07:03:00,19.2,16.7,29.04,ESE,113,0.0,0.0,90,0.00,,,0.00,WUHU216HW,2013-01-24 16:03:00,
2013-01-24 07:08:00,19.4,16.8,29.04,ESE,113,0.0,0.0,90,0.00,,,0.00,WUHU216HW,2013-01-24 16:08:00,
2013-01-24 07:13:00,19.2,16.7,29.04,ESE,113,0.0,0.0,90,0.00,,,0.00,WUHU216HW,2013-01-24 16:13:00,
2013-01-24 07:18:00,19.4,16.8,29.04,ESE,113,0.0,0.0,90,0.00,,,0.00,WUHU216HW,2013-01-24 16:18:00,
2013-01-24 07:23:00,19.2,16.7,29.04,ESE,113,0.0,0.0,90,0.00,,,0.00,WUHU216HW,2013-01-24 16:23:00,
2013-01-24 07:28:00,19.2,16.7,29.04,ESE,113,0.0,0.0,90,0.00,,,0.00,WUHU216HW,2013-01-24 16:28:00,
2013-01-24 07:33:00,19.2,16.7,29.05,ESE,113,0.0,0.0,90,0.00,,,0.00,WUHU216HW,2013-01-24 16:33:00,
2013-01-24 07:38:00,19.2,16.4,29.05,ESE,113,0.0,0.0,89,0.00,,,0.00,WUHU216HW,2013-01-24 16:38:00,
2013-01-24 07:44:00,19.0,16.2,29.05,ESE,113,0.0,0.0,89,0.00,,,0.00,WUHU216HW,2013-01-24 16:44:00,
2013-01-24 07:49:00,19.0,16.2,29.05,ESE,113,0.0,0.0,89,0.00,,,0.00,WUHU216HW,2013-01-24 16:49:00,
2013-01-24 07:54:00,18.8,16.0,29.06,ESE,113,0.0,0.0,89,0.00,,,0.00,WUHU216HW,2013-01-24 16:54:00,
2013-01-24 07:59:00,18.6,15.8,29.06,ESE,113,0.0,0.0,89,0.00,,,0.00,WUHU216HW,2013-01-24 16:59:00,
2013-01-24 08:04:00,18.5,15.7,29.06,ESE,113,0.0,0.0,89,0.00,,,0.00,WUHU216HW,2013-01-24 17:04:00,
2013-01-24 08:09:00,18.3,15.5,29.06,ESE,113,0.0,0.0,89,0.00,,,0.00,WUHU216HW,2013-01-24 17:09:00,
2013-01-24 08:14:00,17.9,15.1,29.06,ESE,113,0.0,0.0,89,0.00,,,0.00,WUHU216HW,2013-01-24 17:14:00,
2013-01-24 08:19:00,17.7,14.9,29.06,ESE,113,0.0,0.0,89,0.00,,,0.00,WUHU216HW,2013-01-24 17:19:00,
2013-01-24 08:24:00,17.7,14.9,29.06,ESE,113,0.0,0.0,89,0.00,,,0.00,WUHU216HW,2013-01-24 17:24:00,
2013-01-24 08:30:00,17.4,14.6,29.06,ESE,113,0.0,0.0,89,0.00,,,0.00,WUHU216HW,2013-01-24 17:30:00,
2013-01-24 08:35:00,17.4,14.6,29.06,East,90,0.0,0.0,89,0.00,,,0.00,WUHU216HW,2013-01-24 17:35:00,
2013-01-24 08:40:00,17.4,14.6,29.07,East,90,0.0,0.0,89,0.00,,,0.00,WUHU216HW,2013-01-24 17:40:00,
2013-01-24 08:48:00,16.8,14.0,29.07,East,90,0.0,0.0,89,0.00,,,0.00,WUHU216HW,2013-01-24 17:48:00,
2013-01-24 08:53:00,17.0,14.2,29.07,East,90,0.0,0.0,89,0.00,,,0.00,WUHU216HW,2013-01-24 17:53:00,
2013-01-24 08:58:00,17.2,14.4,29.07,ENE,68,0.0,0.0,89,0.00,,,0.00,WUHU216HW,2013-01-24 17:58:00,
2013-01-24 09:03:00,17.2,14.4,29.07,NE,45,0.0,0.0,89,0.00,,,0.00,WUHU216HW,2013-01-24 18:03:00,
2013-01-24 09:08:00,17.2,14.4,29.08,SSE,158,0.0,0.0,89,0.00,,,0.00,WUHU216HW,2013-01-24 18:08:00,
2013-01-24 09:13:00,17.2,14.4,29.08,SSE,158,0.0,0.0,89,0.00,,,0.00,WUHU216HW,2013-01-24 18:13:00,
2013-01-24 09:18:00,17.2,14.4,29.08,SSW,203,1.3,1.3,89,0.00,,,0.00,WUHU216HW,2013-01-24 18:18:00,
2013-01-24 09:23:00,17.2,14.4,29.08,SSW,203,0.0,1.3,89,0.00,,,0.00,WUHU216HW,2013-01-24 18:23:00,
2013-01-24 09:28:00,17.2,14.4,29.09,SSW,203,0.0,0.0,89,0.00,,,0.00,WUHU216HW,2013-01-24 18:28:00,
2013-01-24 09:33:00,17.2,14.4,29.09,SSW,203,0.0,0.0,89,0.00,,,0.00,WUHU216HW,2013-01-24 18:33:00,
2013-01-24 09:38:00,16.7,13.9,29.09,SSW,203,0.0,0.0,89,0.00,,,0.00,WUHU216HW,2013-01-24 18:38:00,
2013-01-24 09:43:00,16.5,13.7,29.09,SSW,203,0.0,0.0,89,0.00,,,0.00,WUHU216HW,2013-01-24 18:43:00,
2013-01-24 09:48:00,16.5,13.7,29.09,SSW,203,0.0,0.0,89,0.00,,,0.00,WUHU216HW,2013-01-24 18:48:00,
2013-01-24 09:53:00,16.3,13.2,29.09,SSW,203,0.0,0.0,88,0.00,,,0.00,WUHU216HW,2013-01-24 18:53:00,
2013-01-24 09:58:00,16.1,13.1,29.09,SSW,203,0.0,0.0,88,0.00,,,0.00,WUHU216HW,2013-01-24 18:58:00,
2013-01-24 10:03:00,15.9,12.9,29.09,SSW,203,0.0,0.0,88,0.00,,,0.00,WUHU216HW,2013-01-24 19:03:00,
2013-01-24 10:08:00,15.8,12.7,29.09,SSW,203,0.0,0.0,88,0.00,,,0.00,WUHU216HW,2013-01-24 19:08:00,
2013-01-24 10:13:00,15.9,12.9,29.09,SW,225,0.0,0.0,88,0.00,,,0.00,WUHU216HW,2013-01-24 19:13:00,
2013-01-24 10:18:00,16.1,13.1,29.09,SW,225,0.0,0.0,88,0.00,,,0.00,WUHU216HW,2013-01-24 19:18:00,
2013-01-24 10:23:00,16.3,13.2,29.10,SSE,158,0.0,3.1,88,0.00,,,0.00,WUHU216HW,2013-01-24 19:23:00,
2013-01-24 10:28:00,16.5,13.7,29.10,South,180,0.0,3.1,89,0.00,,,0.00,WUHU216HW,2013-01-24 19:28:00,
2013-01-24 10:33:00,16.7,13.9,29.10,South,180,0.0,0.0,89,0.00,,,0.00,WUHU216HW,2013-01-24 19:33:00,
2013-01-24 10:39:00,16.8,14.0,29.11,South,180,0.0,0.0,89,0.00,,,0.00,WUHU216HW,2013-01-24 19:39:00,
2013-01-24 10:44:00,16.7,13.9,29.11,South,180,0.0,0.0,89,0.00,,,0.00,WUHU216HW,2013-01-24 19:44:00,
2013-01-24 10:49:00,16.5,13.7,29.11,South,180,0.0,0.0,89,0.00,,,0.00,WUHU216HW,2013-01-24 19:49:00,
2013-01-24 10:54:00,16.7,13.9,29.10,South,180,0.0,0.0,89,0.00,,,0.00,WUHU216HW,2013-01-24 19:54:00,
2013-01-24 10:59:00,16.8,14.0,29.10,South,180,0.0,0.0,89,0.00,,,0.00,WUHU216HW,2013-01-24 19:59:00,
2013-01-24 11:04:00,16.8,14.0,29.11,South,180,0.0,0.0,89,0.00,,,0.00,WUHU216HW,2013-01-24 20:04:00,
2013-01-24 11:09:00,16.8,14.0,29.10,South,180,0.0,0.0,89,0.00,,,0.00,WUHU216HW,2013-01-24 20:09:00,
2013-01-24 11:14:00,16.8,14.0,29.11,South,180,0.0,0.0,89,0.00,,,0.00,WUHU216HW,2013-01-24 20:14:00,
2013-01-24 11:19:00,17.0,14.2,29.11,NE,45,0.0,0.0,89,0.00,,,0.00,WUHU216HW,2013-01-24 20:19:00,
2013-01-24 11:24:00,17.4,14.6,29.11,NE,45,0.0,0.0,89,0.00,,,0.00,WUHU216HW,2013-01-24 20:24:00,
2013-01-24 11:29:00,17.9,14.9,29.11,NE,45,0.0,0.0,89,0.00,,,0.00,WUHU216HW,2013-01-24 20:29:00,
2013-01-24 11:34:00,18.5,15.7,29.11,NE,45,0.0,0.0,89,0.00,,,0.00,WUHU216HW,2013-01-24 20:34:00,
2013-01-24 11:39:00,18.6,15.8,29.11,NE,45,0.0,0.0,89,0.00,,,0.00,WUHU216HW,2013-01-24 20:39:00,
2013-01-24 11:44:00,18.6,15.8,29.11,NE,45,0.0,0.0,89,0.00,,,0.00,WUHU216HW,2013-01-24 20:44:00,
2013-01-24 11:49:00,19.2,16.4,29.11,NE,45,0.0,0.0,89,0.00,,,0.00,WUHU216HW,2013-01-24 20:49:00,
2013-01-24 11:54:00,19.2,16.4,29.11,NE,45,0.0,0.0,89,0.00,,,0.00,WUHU216HW,2013-01-24 20:54:00,
2013-01-24 11:59:00,19.9,18.3,29.11,NE,45,0.0,0.0,90,0.00,,,0.00,WUHU216HW,2013-01-24 20:59:00,
2013-01-24 12:04:00,23.5,21.2,29.11,NE,45,0.0,0.0,91,0.00,,,0.00,WUHU216HW,2013-01-24 21:04:00,
2013-01-24 12:09:00,25.8,23.6,29.11,NE,45,0.0,0.0,91,0.00,,,0.00,WUHU216HW,2013-01-24 21:09:00,
2013-01-24 12:14:00,27.5,26.3,29.11,NE,45,0.0,0.0,92,0.00,,,0.00,WUHU216HW,2013-01-24 21:14:00,
2013-01-24 12:19:00,30.2,28.4,29.11,NE,45,0.0,0.0,93,0.00,,,0.00,WUHU216HW,2013-01-24 21:19:00,
2013-01-24 12:24:00,32.1,30.3,29.11,NE,45,0.0,0.0,93,0.00,,,0.00,WUHU216HW,2013-01-24 21:24:00,
2013-01-24 12:29:00,33.6,31.7,29.11,NE,45,0.0,0.0,93,0.00,,,0.00,WUHU216HW,2013-01-24 21:29:00,
2013-01-24 12:34:00,33.4,31.0,29.11,NE,45,0.0,0.0,91,0.00,,,0.00,WUHU216HW,2013-01-24 21:34:00,
2013-01-24 12:39:00,32.1,29.8,29.11,NE,45,0.0,0.0,91,0.00,,,0.00,WUHU216HW,2013-01-24 21:39:00,
2013-01-24 12:44:00,31.6,29.1,29.11,NE,45,0.0,0.0,90,0.00,,,0.00,WUHU216HW,2013-01-24 21:44:00,
2013-01-24 12:49:00,31.6,29.1,29.11,NE,45,0.0,0.0,90,0.00,,,0.00,WUHU216HW,2013-01-24 21:49:00,
2013-01-24 12:54:00,31.8,29.3,29.11,NE,45,0.0,0.0,90,0.00,,,0.00,WUHU216HW,2013-01-24 21:54:00,
2013-01-24 12:59:00,33.8,30.2,29.11,NE,45,0.0,0.0,90,0.00,,,0.00,WUHU216HW,2013-01-24 21:59:00,
2013-01-24 13:04:00,35.9,33.2,29.11,NE,45,0.0,0.0,90,0.00,,,0.00,WUHU216HW,2013-01-24 22:04:00,
2013-01-24 13:09:00,37.2,34.2,29.11,NE,45,0.0,0.0,89,0.00,,,0.00,WUHU216HW,2013-01-24 22:09:00,
2013-01-24 13:14:00,36.3,32.7,29.11,NE,45,0.0,0.0,87,0.00,,,0.00,WUHU216HW,2013-01-24 22:14:00,
2013-01-24 13:19:00,35.2,31.6,29.11,NE,45,0.0,0.0,87,0.00,,,0.00,WUHU216HW,2013-01-24 22:19:00,
2013-01-24 13:24:00,33.6,30.0,29.10,NE,45,0.0,0.0,87,0.00,,,0.00,WUHU216HW,2013-01-24 22:24:00,
2013-01-24 13:29:00,32.9,28.9,29.11,NE,45,0.0,0.0,87,0.00,,,0.00,WUHU216HW,2013-01-24 22:29:00,
2013-01-24 13:34:00,31.6,28.2,29.10,NE,45,0.0,0.0,87,0.00,,,0.00,WUHU216HW,2013-01-24 22:34:00,
2013-01-24 13:39:00,30.7,27.6,29.10,NE,45,0.0,0.0,88,0.00,,,0.00,WUHU216HW,2013-01-24 22:39:00,
2013-01-24 13:44:00,30.3,27.2,29.10,NE,45,0.0,0.0,88,0.00,,,0.00,WUHU216HW,2013-01-24 22:44:00,
2013-01-24 13:49:00,30.0,26.9,29.10,NE,45,0.0,0.0,88,0.00,,,0.00,WUHU216HW,2013-01-24 22:49:00,
2013-01-24 13:54:00,30.0,27.2,29.10,NE,45,0.0,0.0,89,0.00,,,0.00,WUHU216HW,2013-01-24 22:54:00,
2013-01-24 13:59:00,30.0,27.2,29.10,NE,45,0.0,0.0,89,0.00,,,0.00,WUHU216HW,2013-01-24 22:59:00,
2013-01-24 14:04:00,30.0,27.2,29.10,NE,45,0.0,0.0,89,0.00,,,0.00,WUHU216HW,2013-01-24 23:04:00,
2013-01-24 14:09:00,30.2,27.3,29.10,NE,45,0.0,0.0,89,0.00,,,0.00,WUHU216HW,2013-01-24 23:09:00,
2013-01-24 14:14:00,30.3,27.8,29.10,NE,45,0.0,0.0,90,0.00,,,0.00,WUHU216HW,2013-01-24 23:14:00,
2013-01-24 14:19:00,30.3,27.8,29.10,NE,45,0.0,0.0,90,0.00,,,0.00,WUHU216HW,2013-01-24 23:19:00,
2013-01-24 14:24:00,30.2,27.6,29.09,NE,45,0.0,0.0,90,0.00,,,0.00,WUHU216HW,2013-01-24 23:24:00,
2013-01-24 14:29:00,30.0,27.5,29.09,NE,45,0.0,0.0,90,0.00,,,0.00,WUHU216HW,2013-01-24 23:29:00,
2013-01-24 14:34:00,30.0,27.5,29.09,NE,45,0.0,0.0,90,0.00,,,0.00,WUHU216HW,2013-01-24 23:34:00,
2013-01-24 14:39:00,29.8,27.3,29.09,NE,45,0.0,0.0,90,0.00,,,0.00,WUHU216HW,2013-01-24 23:39:00,
2013-01-24 14:44:00,29.4,26.8,29.09,NE,45,0.0,0.0,89,0.00,,,0.00,WUHU216HW,2013-01-24 23:44:00,
2013-01-24 14:49:00,29.3,26.4,29.09,NE,45,0.0,0.0,89,0.00,,,0.00,WUHU216HW,2013-01-24 23:49:00,
2013-01-24 14:54:00,29.3,26.4,29.09,NE,45,0.0,0.0,89,0.00,,,0.00,WUHU216HW,2013-01-24 23:54:00,
2013-01-24 14:59:00,29.1,26.3,29.09,NE,45,0.0,0.0,89,0.00,,,0.00,WUHU216HW,2013-01-24 23:59:00,
2013-01-24 15:04:00,28.7,26.2,29.09,NE,45,0.0,0.0,90,0.00,,,0.00,WUHU216HW,2013-01-25 00:04:00,
2013-01-24 15:09:00,28.5,26.0,29.09,NE,45,0.0,0.0,90,0.00,,,0.00,WUHU216HW,2013-01-25 00:09:00,
2013-01-24 15:14:00,28.5,26.0,29.09,NE,45,0.0,0.0,90,0.00,,,0.00,WUHU216HW,2013-01-25 00:14:00,
2013-01-24 15:19:00,28.2,25.7,29.09,NE,45,0.0,0.0,90,0.00,,,0.00,WUHU216HW,2013-01-25 00:19:00,
2013-01-24 15:24:00,28.2,25.7,29.09,NE,45,0.0,0.0,90,0.00,,,0.00,WUHU216HW,2013-01-25 00:24:00,
2013-01-24 15:29:00,28.2,25.7,29.09,NE,45,0.0,0.0,90,0.00,,,0.00,WUHU216HW,2013-01-25 00:29:00,
2013-01-24 15:34:00,28.2,25.7,29.09,NE,45,0.0,0.0,90,0.00,,,0.00,WUHU216HW,2013-01-25 00:34:00,
2013-01-24 15:39:00,28.2,25.7,29.09,NE,45,0.0,0.0,90,0.00,,,0.00,WUHU216HW,2013-01-25 00:39:00,
2013-01-24 15:44:00,28.2,25.7,29.09,NE,45,0.0,0.0,90,0.00,,,0.00,WUHU216HW,2013-01-25 00:44:00,
2013-01-24 15:49:00,28.0,25.5,29.09,NE,45,0.0,0.0,90,0.00,,,0.00,WUHU216HW,2013-01-25 00:49:00,
2013-01-24 15:54:00,28.0,25.5,29.09,ENE,68,0.0,0.0,90,0.00,,,0.00,WUHU216HW,2013-01-25 00:54:00,
2013-01-24 15:59:00,27.6,25.1,29.09,ENE,68,0.0,0.0,90,0.00,,,0.00,WUHU216HW,2013-01-25 00:59:00,
2013-01-24 16:04:00,27.6,25.1,29.08,ENE,68,0.0,0.0,90,0.00,,,0.00,WUHU216HW,2013-01-25 01:04:00,
2013-01-24 16:09:00,27.5,24.9,29.09,ENE,68,0.0,0.0,90,0.00,,,0.00,WUHU216HW,2013-01-25 01:09:00,
2013-01-24 16:14:00,27.6,24.9,29.08,ENE,68,0.0,0.0,90,0.00,,,0.00,WUHU216HW,2013-01-25 01:14:00,
2013-01-24 16:19:00,27.3,24.8,29.08,ENE,68,0.0,0.0,90,0.00,,,0.00,WUHU216HW,2013-01-25 01:19:00,
2013-01-24 16:25:00,27.1,24.6,29.09,East,90,0.0,0.0,90,0.00,,,0.00,WUHU216HW,2013-01-25 01:25:00,
2013-01-24 16:30:00,27.1,24.6,29.08,SE,135,0.0,0.0,90,0.00,,,0.00,WUHU216HW,2013-01-25 01:30:00,
2013-01-24 16:35:00,26.9,24.4,29.08,SE,135,0.0,0.0,90,0.00,,,0.00,WUHU216HW,2013-01-25 01:35:00,
2013-01-24 16:40:00,26.9,24.4,29.08,SE,135,0.0,0.0,90,0.00,,,0.00,WUHU216HW,2013-01-25 01:40:00,
2013-01-24 16:45:00,27.1,24.6,29.08,SSE,158,0.0,0.0,90,0.00,,,0.00,WUHU216HW,2013-01-25 01:45:00,
2013-01-24 16:50:00,27.1,24.6,29.08,SE,135,0.0,0.0,90,0.00,,,0.00,WUHU216HW,2013-01-25 01:50:00,
2013-01-24 16:55:00,27.1,24.6,29.08,SSE,158,0.0,0.0,90,0.00,,,0.00,WUHU216HW,2013-01-25 01:55:00,
2013-01-24 17:00:00,27.3,24.6,29.08,SSE,158,0.0,0.0,90,0.00,,,0.00,WUHU216HW,2013-01-25 02:00:00,
2013-01-24 17:05:00,27.3,24.8,29.08,SSE,158,0.0,0.0,90,0.00,,,0.00,WUHU216HW,2013-01-25 02:05:00,
2013-01-24 17:10:00,27.1,24.6,29.08,SSE,158,0.0,0.0,90,0.00,,,0.00,WUHU216HW,2013-01-25 02:10:00,
2013-01-24 17:15:00,26.9,24.4,29.08,SE,135,0.0,0.0,90,0.00,,,0.00,WUHU216HW,2013-01-25 02:15:00,
2013-01-24 17:20:00,27.1,24.6,29.08,SE,135,0.0,0.0,90,0.00,,,0.00,WUHU216HW,2013-01-25 02:20:00,
2013-01-24 17:25:00,27.1,24.6,29.08,SSE,158,0.0,0.0,90,0.00,,,0.00,WUHU216HW,2013-01-25 02:25:00,
2013-01-24 17:30:00,27.3,24.8,29.08,SSE,158,0.0,0.0,90,0.00,,,0.00,WUHU216HW,2013-01-25 02:30:00,
2013-01-24 17:35:00,27.3,24.8,29.08,SSE,158,1.3,1.3,90,0.00,,,0.00,WUHU216HW,2013-01-25 02:35:00,
2013-01-24 17:40:00,27.1,24.6,29.08,South,180,0.0,1.3,90,0.00,,,0.00,WUHU216HW,2013-01-25 02:40:00,
2013-01-24 17:45:00,26.9,24.4,29.08,SSE,158,0.0,0.0,90,0.00,,,0.00,WUHU216HW,2013-01-25 02:45:00,
2013-01-24 17:50:00,26.6,24.0,29.08,South,180,0.0,0.0,90,0.00,,,0.00,WUHU216HW,2013-01-25 02:50:00,
2013-01-24 17:55:00,26.0,23.5,29.08,South,180,0.0,0.0,90,0.00,,,0.00,WUHU216HW,2013-01-25 02:55:00,
2013-01-24 18:00:00,25.7,23.1,29.08,South,180,0.0,0.0,90,0.00,,,0.00,WUHU216HW,2013-01-25 03:00:00,
2013-01-24 18:05:00,25.5,23.0,29.08,SSE,158,0.0,0.0,90,0.00,,,0.00,WUHU216HW,2013-01-25 03:05:00,
2013-01-24 18:10:00,25.3,22.8,29.08,South,180,0.0,0.0,90,0.00,,,0.00,WUHU216HW,2013-01-25 03:10:00,
2013-01-24 18:15:00,25.1,22.6,29.08,SSE,158,0.0,0.0,90,0.00,,,0.00,WUHU216HW,2013-01-25 03:15:00,
2013-01-24 18:20:00,24.9,22.4,29.08,SE,135,0.0,0.0,90,0.00,,,0.00,WUHU216HW,2013-01-25 03:20:00,
2013-01-24 18:25:00,25.1,22.6,29.08,SE,135,0.0,0.0,90,0.00,,,0.00,WUHU216HW,2013-01-25 03:25:00,
2013-01-24 18:30:00,24.9,22.4,29.08,SE,135,0.0,0.0,90,0.00,,,0.00,WUHU216HW,2013-01-25 03:30:00,
2013-01-24 18:35:00,24.9,22.4,29.08,SE,135,0.0,0.0,90,0.00,,,0.00,WUHU216HW,2013-01-25 03:35:00,
2013-01-24 18:40:00,24.9,22.4,29.07,SE,135,0.0,0.0,90,0.00,,,0.00,WUHU216HW,2013-01-25 03:40:00,
2013-01-24 18:45:00,24.8,22.2,29.07,SSE,158,0.0,0.0,90,0.00,,,0.00,WUHU216HW,2013-01-25 03:45:00,
2013-01-24 18:50:00,24.9,22.4,29.07,SE,135,0.0,0.0,90,0.00,,,0.00,WUHU216HW,2013-01-25 03:50:00,
2013-01-24 18:55:00,25.3,22.8,29.07,SSE,158,0.0,2.4,90,0.00,,,0.00,WUHU216HW,2013-01-25 03:55:00,
2013-01-24 19:00:00,25.5,23.0,29.07,SSE,158,0.0,2.4,90,0.00,,,0.00,WUHU216HW,2013-01-25 04:00:00,
2013-01-24 19:05:00,25.5,23.0,29.07,SSE,158,0.0,0.0,90,0.00,,,0.00,WUHU216HW,2013-01-25 04:05:00,
2013-01-24 19:10:00,25.5,23.0,29.07,SSE,158,0.0,0.0,90,0.00,,,0.00,WUHU216HW,2013-01-25 04:10:00,
2013-01-24 19:15:00,25.5,23.0,29.07,SSE,158,0.0,0.0,90,0.00,,,0.00,WUHU216HW,2013-01-25 04:15:00,
2013-01-24 19:20:00,25.7,23.1,29.07,SE,135,0.0,3.1,90,0.00,,,0.00,WUHU216HW,2013-01-25 04:20:00,
2013-01-24 19:25:00,25.8,23.3,29.07,SSE,158,0.0,3.1,90,0.00,,,0.00,WUHU216HW,2013-01-25 04:25:00,
2013-01-24 19:30:00,25.8,23.6,29.07,SSE,158,0.0,0.0,91,0.00,,,0.00,WUHU216HW,2013-01-25 04:30:00,
2013-01-24 19:35:00,25.7,23.4,29.07,SSE,158,2.2,2.2,91,0.00,,,0.00,WUHU216HW,2013-01-25 04:35:00,
2013-01-24 19:40:00,25.7,23.4,29.06,SE,135,0.0,2.2,90,0.00,,,0.00,WUHU216HW,2013-01-25 04:40:00,
2013-01-24 19:45:00,25.5,23.0,29.06,SE,135,0.0,1.7,90,0.00,,,0.00,WUHU216HW,2013-01-25 04:45:00,
2013-01-24 19:50:00,25.5,23.0,29.06,SE,135,0.0,0.0,90,0.00,,,0.00,WUHU216HW,2013-01-25 04:50:00,
2013-01-24 19:55:00,25.1,22.6,29.06,SE,135,0.0,0.0,90,0.00,,,0.00,WUHU216HW,2013-01-25 04:55:00,
2013-01-24 20:00:00,24.9,22.4,29.06,SSE,158,0.0,0.0,90,0.00,,,0.00,WUHU216HW,2013-01-25 05:00:00,
2013-01-24 20:01:00,24.9,22.4,29.06,SSE,158,0.0,0.0,90,0.00,,,0.00,WUHU216HW,2013-01-25 05:01:00,
2013-01-24 20:06:00,24.6,22.1,29.06,SSE,158,0.0,0.0,90,0.00,,,0.00,WUHU216HW,2013-01-25 05:06:00,
2013-01-24 20:11:00,24.4,21.9,29.06,SE,135,0.0,0.0,90,0.00,,,0.00,WUHU216HW,2013-01-25 05:11:00,
2013-01-24 20:16:00,24.4,21.9,29.06,SE,135,0.0,0.0,90,0.00,,,0.00,WUHU216HW,2013-01-25 05:16:00,
2013-01-24 20:21:00,24.6,22.1,29.06,SSE,158,3.5,3.5,90,0.00,,,0.00,WUHU216HW,2013-01-25 05:21:00,
2013-01-24 20:26:00,24.6,22.1,29.06,SE,135,0.0,3.5,90,0.00,,,0.00,WUHU216HW,2013-01-25 05:26:00,
2013-01-24 20:31:00,24.6,22.1,29.06,SSE,158,0.2,3.5,90,0.00,,,0.00,WUHU216HW,2013-01-25 05:31:00,
2013-01-24 20:36:00,25.1,22.6,29.06,SE,135,0.0,2.4,90,0.00,,,0.00,WUHU216HW,2013-01-25 05:36:00,
2013-01-24 20:41:00,25.3,22.8,29.06,SSE,158,0.0,2.4,90,0.00,,,0.00,WUHU216HW,2013-01-25 05:41:00,
2013-01-24 20:46:00,25.3,22.8,29.06,SSE,158,0.0,0.0,90,0.00,,,0.00,WUHU216HW,2013-01-25 05:46:00,
2013-01-24 20:51:00,25.3,22.8,29.06,SSE,158,3.3,3.3,90,0.00,,,0.00,WUHU216HW,2013-01-25 05:51:00,
2013-01-24 20:56:00,25.1,22.6,29.05,SSE,158,0.8,3.3,90,0.00,,,0.00,WUHU216HW,2013-01-25 05:56:00,
2013-01-24 21:01:00,25.3,22.8,29.05,South,180,0.0,3.3,90,0.00,,,0.00,WUHU216HW,2013-01-25 06:01:00,
2013-01-24 21:06:00,25.3,23.0,29.05,SSE,158,2.6,2.6,91,0.00,,,0.00,WUHU216HW,2013-01-25 06:06:00,
2013-01-24 21:11:00,25.3,23.0,29.05,SSE,158,0.0,2.6,91,0.00,,,0.00,WUHU216HW,2013-01-25 06:11:00,
2013-01-24 21:16:00,25.3,23.0,29.05,SSE,158,4.9,4.9,91,0.00,,,0.00,WUHU216HW,2013-01-25 06:16:00,
2013-01-24 21:21:00,25.3,23.0,29.05,SE,135,0.0,4.9,91,0.00,,,0.00,WUHU216HW,2013-01-25 06:21:00,
2013-01-24 21:26:00,25.3,23.0,29.05,South,180,0.0,0.0,91,0.00,,,0.00,WUHU216HW,2013-01-25 06:26:00,
2013-01-24 21:31:00,25.5,23.2,29.05,SSE,158,0.0,0.0,91,0.00,,,0.00,WUHU216HW,2013-01-25 06:31:00,
2013-01-24 21:36:00,25.7,23.4,29.04,SSE,158,0.0,0.0,91,0.00,,,0.00,WUHU216HW,2013-01-25 06:36:00,
2013-01-24 21:41:00,25.8,23.6,29.04,SSE,158,0.0,0.0,91,0.00,,,0.00,WUHU216HW,2013-01-25 06:41:00,
2013-01-24 21:46:00,25.8,23.6,29.04,SE,135,0.0,0.0,91,0.00,,,0.00,WUHU216HW,2013-01-25 06:46:00,
2013-01-24 21:51:00,25.7,23.4,29.04,SSE,158,0.0,0.0,91,0.00,,,0.00,WUHU216HW,2013-01-25 06:51:00,
2013-01-24 21:56:00,25.5,23.2,29.04,SSE,158,0.0,0.0,91,0.00,,,0.00,WUHU216HW,2013-01-25 06:56:00,
2013-01-24 22:01:00,25.5,23.2,29.04,SSE,158,0.0,0.0,91,0.00,,,0.00,WUHU216HW,2013-01-25 07:01:00,
2013-01-24 22:06:00,25.3,23.0,29.04,SSE,158,0.0,0.0,91,0.00,,,0.00,WUHU216HW,2013-01-25 07:06:00,
2013-01-24 22:11:00,25.1,22.6,29.04,SSE,158,0.0,0.0,90,0.00,,,0.00,WUHU216HW,2013-01-25 07:11:00,
2013-01-24 22:16:00,25.1,22.6,29.03,SSE,158,0.0,0.0,90,0.00,,,0.00,WUHU216HW,2013-01-25 07:16:00,
2013-01-24 22:21:00,24.9,22.7,29.03,SE,135,0.0,0.0,91,0.00,,,0.00,WUHU216HW,2013-01-25 07:21:00,
2013-01-24 22:26:00,25.1,22.8,29.03,SE,135,0.0,2.4,91,0.00,,,0.00,WUHU216HW,2013-01-25 07:26:00,
2013-01-24 22:31:00,25.3,23.0,29.03,SSE,158,0.0,2.4,91,0.00,,,0.00,WUHU216HW,2013-01-25 07:31:00,
2013-01-24 22:36:00,25.3,23.0,29.03,SSE,158,0.0,0.0,91,0.00,,,0.00,WUHU216HW,2013-01-25 07:36:00,
2013-01-24 22:41:00,25.3,23.0,29.03,SSE,158,0.0,0.0,91,0.00,,,0.00,WUHU216HW,2013-01-25 07:41:00,
2013-01-24 22:46:00,25.5,23.2,29.02,SSE,158,0.0,0.0,91,0.00,,,0.00,WUHU216HW,2013-01-25 07:46:00,
2013-01-24 22:51:00,25.5,23.2,29.02,SSE,158,0.0,0.0,91,0.00,,,0.00,WUHU216HW,2013-01-25 07:51:00,
2013-01-24 22:56:00,25.3,23.0,29.02,SSE,158,0.0,0.0,91,0.00,,,0.00,WUHU216HW,2013-01-25 07:56:00,
2013-01-24 23:01:00,25.1,22.8,29.02,SSE,158,0.0,0.0,91,0.00,,,0.00,WUHU216HW,2013-01-25 08:01:00,
2013-01-24 23:06:00,24.9,22.7,29.02,SSE,158,0.0,0.0,91,0.00,,,0.00,WUHU216HW,2013-01-25 08:06:00,
2013-01-24 23:11:00,24.6,22.3,29.02,SSE,158,0.0,0.0,91,0.00,,,0.00,WUHU216HW,2013-01-25 08:11:00,
2013-01-24 23:16:00,24.4,22.1,29.02,SSE,158,0.0,0.0,91,0.00,,,0.00,WUHU216HW,2013-01-25 08:16:00,
2013-01-24 23:21:00,24.4,22.1,29.01,SE,135,0.0,0.0,91,0.00,,,0.00,WUHU216HW,2013-01-25 08:21:00,
2013-01-24 23:26:00,24.4,22.1,29.01,SE,135,0.0,0.0,91,0.00,,,0.00,WUHU216HW,2013-01-25 08:26:00,
2013-01-24 23:31:00,24.6,22.3,29.01,SSE,158,0.0,0.0,91,0.00,,,0.00,WUHU216HW,2013-01-25 08:31:00,
2013-01-24 23:36:00,24.9,22.7,29.01,SSE,158,0.0,0.0,91,0.00,,,0.00,WUHU216HW,2013-01-25 08:36:00,
2013-01-24 23:41:00,25.1,22.8,29.01,South,180,0.0,0.0,91,0.00,,,0.00,WUHU216HW,2013-01-25 08:41:00,
2013-01-24 23:46:00,25.5,23.2,29.01,SSE,158,0.0,0.0,91,0.00,,,0.00,WUHU216HW,2013-01-25 08:46:00,
2013-01-24 23:51:00,26.0,23.7,29.01,SSE,158,0.0,0.0,91,0.00,,,0.00,WUHU216HW,2013-01-25 08:51:00,
2013-01-24 23:56:00,26.7,24.5,29.01,SSE,158,2.2,2.2,91,0.00,,,0.00,WUHU216HW,2013-01-25 08:56:00,